TimePST,TemperatureF,Dew PointF,Humidity,Sea Level PressureIn,VisibilityMPH,Wind Direction,Wind SpeedMPH,Gust SpeedMPH,PrecipitationIn,Events,Conditions,WindDirDegrees,DateUTC
12:53 AM,57.0,48.9,74,29.94,10.0,ESE,3.5,-,N/A,,Mostly Cloudy,110,2013-11-17 08:53:00
1:53 AM,57.0,48.9,74,29.95,10.0,East,3.5,-,N/A,,Scattered Clouds,80,2013-11-17 09:53:00
2:53 AM,55.9,48.0,75,29.95,10.0,East,3.5,-,N/A,,Overcast,80,2013-11-17 10:53:00
3:53 AM,55.9,48.9,77,29.95,10.0,NE,4.6,-,N/A,,Scattered Clouds,50,2013-11-17 11:53:00
4:53 AM,55.0,48.0,77,29.96,10.0,East,3.5,-,N/A,,Partly Cloudy,80,2013-11-17 12:53:00
5:53 AM,55.0,48.0,77,29.97,10.0,Calm,Calm,-,N/A,,Partly Cloudy,0,2013-11-17 13:53:00
6:53 AM,57.0,48.9,74,29.99,10.0,Calm,Calm,-,N/A,,Scattered Clouds,0,2013-11-17 14:53:00
7:53 AM,61.0,50.0,67,30.01,10.0,NE,4.6,-,N/A,,Partly Cloudy,40,2013-11-17 15:53:00
8:53 AM,62.1,51.1,67,30.04,10.0,East,4.6,-,N/A,,Partly Cloudy,100,2013-11-17 16:53:00
9:53 AM,64.9,50.0,58,30.05,10.0,SE,3.5,-,N/A,,Scattered Clouds,140,2013-11-17 17:53:00
10:53 AM,66.0,50.0,56,30.05,10.0,Calm,Calm,-,N/A,,Scattered Clouds,0,2013-11-17 18:53:00
11:53 AM,64.0,50.0,60,30.03,10.0,WSW,9.2,-,N/A,,Mostly Cloudy,250,2013-11-17 19:53:00
12:53 PM,66.0,54.0,65,30.02,10.0,SW,9.2,-,N/A,,Scattered Clouds,230,2013-11-17 20:53:00
1:53 PM,64.9,53.1,65,30.02,10.0,WSW,11.5,-,N/A,,Scattered Clouds,250,2013-11-17 21:53:00
2:53 PM,64.0,53.1,67,30.02,10.0,WSW,11.5,-,N/A,,Scattered Clouds,240,2013-11-17 22:53:00
3:53 PM,63.0,53.1,70,30.02,10.0,West,10.4,-,N/A,,Mostly Cloudy,260,2013-11-17 23:53:00
4:53 PM,62.1,54.0,75,30.02,10.0,West,10.4,-,N/A,,Mostly Cloudy,280,2013-11-18 00:53:00
5:53 PM,62.1,54.0,75,30.03,10.0,West,10.4,-,N/A,,Mostly Cloudy,270,2013-11-18 01:53:00
6:53 PM,61.0,54.0,78,30.04,10.0,West,9.2,-,N/A,,Partly Cloudy,270,2013-11-18 02:53:00
7:53 PM,61.0,54.0,78,30.05,10.0,WSW,6.9,-,N/A,,Scattered Clouds,250,2013-11-18 03:53:00
8:53 PM,61.0,54.0,78,30.07,9.0,West,4.6,-,N/A,,Partly Cloudy,260,2013-11-18 04:53:00
9:53 PM,61.0,55.0,81,30.08,9.0,SW,4.6,-,N/A,,Partly Cloudy,230,2013-11-18 05:53:00
10:53 PM,60.1,54.0,80,30.09,10.0,WSW,3.5,-,N/A,,Partly Cloudy,240,2013-11-18 06:53:00
11:53 PM,59.0,53.1,81,30.09,10.0,Calm,Calm,-,N/A,,Partly Cloudy,0,2013-11-18 07:53:00